Location: Arcones
(41.1182°N, 3.7238°W)
Time: 21:12:52
(UTC+00:00)

IRIDIUM 106 - Pass Details

Date: 11 December 2025
Orbit: 776 x 779 km, 86.4° (Epoch: 12 January)

Event Time Altitude Azimuth Distance (km) Brightness Sun altitude
Rises 17:14:47 0° 2° (N) 3,268 7.3 -5.6°
Reaches altitude 10° 17:17:13 10° 7° (N) 2,336 6.5 -6.0°
Maximum altitude 17:22:19 53° 84° (E) 956 4.5 -6.8°
Drops below altitude 10° 17:27:22 10° 161° (SSE) 2,318 6.9 -7.7°
Sets 17:29:46 0° 166° (SSE) 3,241 7.7 -8.1°
